Regional Weather Roundup
Issued by NWS Binghamton, NY

Home | Current Version | Previous Version | Text Only | Print | Product List | Glossary On
Versions: 1 2 3 4 5 6 7 8 9 10 11 12 13 14 15 16 17 18 19 20 21 22 23 24 25 26 27 28 29 30 31 32 33 34 35 36 37 38 39 40 41 42 43 44 45 46 47 48 49 50
000
ASUS41 KBGM 262210
RWRBGM
RWRBGM
BINGHAMTON REGIONAL WEATHER ROUNDUP
NATIONAL WEATHER SERVICE BINGHAMTON NY
600 PM EDT THU MAR 26 2015

Note: "fair" indicates few or no clouds below 12,000 feet with no
significant weather and/or obstructions to visibility.

* = Station(s) that does not report precipitation, such as rain,
snow, etc, also no thunder or fog.

!NYZ009-015>018-022>025-036-037-044>046-055>057-062-262300
...CENTRAL NEW YORK...

CITY           SKY/WX    TMP DP  RH WIND       PRES   REMARKS
BINGHAMTON     LGT RAIN  36  36 100 N8        29.70R VSB 3/4 WCI  30
CORTLAND       LGT RAIN  36  36 100 CALM      29.74R VSB 1
DANSVILLE      LGT RAIN  36  34  92 CALM      29.78S FOG
ELMIRA         LGT RAIN  37  37 100 NE6       29.74S WCI  32
ITHACA         LGT RAIN  33  33 100 NW6       29.75R VSB 1/16WCI  27
MONTICELLO     CLOUDY    46  46 100 S6        29.63S VSB<1/4
NORWICH        RAIN      36  36 100 N5          N/A  WCI  32
ONEONTA        RAIN      36  36 100 N5        29.68S VSB 1/4 WCI  32
PENN YAN       LGT RAIN  36  34  92 CALM      29.76R FOG
ROME           LGT RAIN  34  34 100 NW5       29.77R FOG     WCI  30
SIDNEY         RAIN      39  39 100 E3        29.70R
SYRACUSE       LGTSLEET  34  33  96 NW5       29.78R FOG     WCI  30
$$

!PAZ038>040-043-044-047-048-072-262300
...NORTHEAST PENNSYLVANIA...

CITY           SKY/WX    TMP DP  RH WIND       PRES   REMARKS
HAZLETON       CLOUDY    54  52  94 W13G20    29.65R FOG
SCRANTON       LGT RAIN  45  40  82 N14       29.66R
TOWANDA*       CLOUDY    41  39  93 CALM      29.74S
$$
&&
KEY
WCI = WIND CHILL INDEX
VSB = VISIBILITY
HX  = HEAT INDEX
$$



USA.gov is the U.S. government's official web portal to all federal, state and local government web resources and services.